Location: Dodge City Community College Allied Health Building
(37.7772°N, 100.0364°W)
Time: 13:13:20
(UTC+00:00)

Meteor 1-31 Rocket - Pass Details

Date: 08 December 2021
Orbit: 519 x 544 km, 97.7° (Epoch: 19 January)

Event Time Altitude Azimuth Distance (km) Brightness Sun altitude
Rises 12:17:17 0° 4° (N) 2,707 6.2 -16.5°
Reaches altitude 10° 12:19:28 10° 357° (N) 1,813 5.3 -16.1°
Maximum altitude 12:23:10 42° 286° (WNW) 791 3.1 -15.4°
Drops below altitude 10° 12:26:51 10° 216° (SW) 1,806 5.3 -14.7°
Sets 12:29:03 0° 209° (SSW) 2,695 6.2 -14.3°
